[[{"header":{"parameterUnit":"m.s-1","parameterCategory":1,"la1":30.2991,"la2":30.254,"lo1":-89.0895,"lo2":-89.0444,"dy":0.0017,"dx":0.0017,"nx":28,"ny":28,"refTime":"2023-08-27T03:00:00:Z","depth":0,"parameterNumber":2,"parameterNumberName":"U-component_of_WINDS"},"data":[0,0,0,0,0,0,0,0,0,0,0,0,0,0,0,0,0,0,0,0,0,0,0,0,0,0,0,0,0,0,0,0,0,0,0,0,0,0,0,0,0,0,0,0,0,0,0,0,0,0,0,0,0,0,0,0,0,0,-1.1734,-1.1733,0,-1.1661,-1.1661,-1.166,-1.1623,-1.1623,-1.1623,-1.1623,-1.1551,-1.1549,-1.1547,0,0,0,0,0,0,0,0,0,0,0,0,0,-1.1842,-1.1841,-1.1734,-1.1733,-1.1732,-1.1662,-1.1661,-1.166,-1.1623,-1.1623,-1.1623,-1.1623,-1.1552,-1.1549,-1.1547,0,0,0,0,0,0,0,0,0,0,0,0,0,-1.1785,-1.184,-1.1734,-1.1705,-1.1702,-1.1662,-1.1661,-1.1659,-1.1623,-1.1623,-1.1623,-1.1623,-1.1552,-1.155,-1.1547,-1.153,0,0,-1.1538,-1.1537,0,0,0,0,0,0,0,0,-1.1789,-1.1781,-1.171,-1.1707,-1.1703,-1.1651,-1.1672,-1.1616,-1.1623,-1.1653,-1.1623,-1.1623,-1.1585,-1.1579,-1.1566,-1.1527,-1.1524,-1.1538,-1.1536,-1.1535,-1.1534,0,0,0,0,0,0,0,-1.1793,-1.1784,-1.1705,-1.1709,-1.1705,-1.1697,-1.1689,-1.1662,-1.162,-1.1651,-1.1648,-1.164,-1.1583,-1.1569,-1.1564,-1.1523,-1.1538,-1.1535,-1.1534,-1.1533,-1.1467,-1.1467,0,0,0,0,0,0,-1.1801,-1.1788,-1.1707,-1.1703,-1.1747,-1.1695,-1.1686,-1.1668,-1.162,-1.1613,-1.164,-1.1638,-1.1573,-1.1567,-1.1561,-1.1538,-1.1535,-1.1532,-1.1531,-1.1467,-1.1467,-1.1467,0,0,0,0,0,0,-1.1803,-1.1794,-1.171,-1.1745,-1.1733,-1.1693,-1.1674,-1.1667,-1.1652,-1.1612,-1.1605,-1.1633,-1.1573,-1.1565,-1.1538,-1.1535,-1.1531,-1.1528,-1.1467,-1.1467,-1.1467,-1.1493,0,0,0,0,0,0,-1.1807,-1.1795,-1.1788,-1.1745,-1.1732,-1.1688,-1.1673,-1.1665,-1.1647,-1.1645,-1.1603,-1.1597,-1.1572,-1.1543,-1.1535,-1.1531,-1.1526,-1.1467,-1.1467,-1.1467,-1.1493,-1.1494,-1.1496,0,0,0,0,0,-1.1811,-1.1798,-1.1788,-1.1778,-1.1722,-1.1688,-1.1681,-1.1652,-1.1647,-1.164,-1.1614,-1.1598,-1.1537,-1.154,-1.1532,-1.1527,-1.1467,-1.1467,-1.1467,-1.1492,-1.1494,-1.1496,0,0,0,0,0,0,-1.1843,-1.1792,-1.178,-1.1753,-1.1725,-1.1682,-1.1672,-1.1655,-1.1629,-1.1627,-1.1594,-1.1585,-1.1562,-1.1542,-1.1546,-1.1509,-1.1501,-1.1499,-1.1522,-1.1524,-1.1525,-1.1531,-1.1524,0,0,0,0,0,-1.1847,-1.1823,-1.1781,-1.1761,-1.1748,-1.1712,-1.1697,-1.1677,-1.1647,-1.1635,-1.1608,-1.158,-1.1554,-1.1538,-1.1512,-1.149,-1.148,-1.1482,-1.1484,-1.1485,-1.1484,-1.1471,-1.1471,-1.1467,-1.1467,-1.1467,0,0,-1.1855,-1.1825,-1.1812,-1.1767,-1.1743,-1.172,-1.1703,-1.1679,-1.1661,-1.1632,-1.1605,-1.1583,-1.155,-1.1525,-1.1513,-1.1508,-1.1483,-1.1485,-1.1487,-1.1485,-1.1471,-1.1471,-1.1472,-1.1467,-1.1467,-1.1467,0,0,-1.1858,-1.1832,-1.1813,-1.179,-1.1753,-1.173,-1.1726,-1.1685,-1.1669,-1.1641,-1.1619,-1.1598,-1.1555,-1.1532,-1.1515,-1.1509,-1.1494,-1.1502,-1.151,-1.1497,-1.1498,-1.1498,-1.1496,-1.1496,-1.1501,-1.1501,-1.1501,0,-1.1873,-1.1836,-1.1806,-1.1783,-1.1764,-1.1736,-1.1717,-1.1696,-1.1654,-1.1642,-1.1637,-1.1582,-1.1557,-1.1527,-1.1526,-1.1513,-1.1507,-1.1506,-1.15,-1.15,-1.15,-1.1497,-1.1497,-1.1502,-1.1502,-1.1502,-1.1502,0,-1.1856,-1.1831,-1.1821,-1.1779,-1.176,-1.1739,-1.1706,-1.169,-1.1673,-1.165,-1.1622,-1.1592,-1.156,-1.1551,-1.1535,-1.1519,-1.1517,-1.1506,-1.1498,-1.1502,-1.1499,-1.1498,-1.1504,-1.1504,-1.1503,-1.1503,0,0,-1.1877,-1.182,-1.1816,-1.1797,-1.1755,-1.1736,-1.1714,-1.1682,-1.1669,-1.1641,-1.1622,-1.1586,-1.1577,-1.1557,-1.1538,-1.1527,-1.1525,-1.1518,-1.1516,-1.152,-1.1505,-1.1513,-1.1512,-1.1514,-1.1514,-1.1513,-1.1508,0,-1.1874,-1.1833,-1.1805,-1.1775,-1.1752,-1.1725,-1.1707,-1.1679,-1.1658,-1.1636,-1.1612,-1.1587,-1.1576,-1.1564,-1.1553,-1.1527,-1.1521,-1.1527,-1.1497,-1.1496,-1.1505,-1.1511,-1.1519,-1.1515,-1.1507,-1.1507,-1.1506,0,-1.1864,-1.1836,-1.1804,-1.1764,-1.1754,-1.1737,-1.1706,-1.1685,-1.1654,-1.1639,-1.1617,-1.1597,-1.1574,-1.1568,-1.1536,-1.1541,-1.1527,-1.1513,-1.1512,-1.1507,-1.1501,-1.1507,-1.1513,-1.1513,-1.1504,-1.1505,-1.1505,0,-1.1883,-1.1837,-1.1811,-1.1796,-1.175,-1.1739,-1.1719,-1.1688,-1.167,-1.1643,-1.1632,-1.1602,-1.1586,-1.1565,-1.1538,-1.1536,-1.1508,-1.15,-1.1496,-1.1496,-1.1491,-1.1491,-1.1495,-1.1482,-1.1482,-1.1482,-1.1482,0,-1.1882,-1.1863,-1.1819,-1.1803,-1.1782,-1.1751,-1.173,-1.1709,-1.1681,-1.1661,-1.1637,-1.1619,-1.1585,-1.1563,-1.1542,-1.1518,-1.1512,-1.1499,-1.1494,-1.1501,-1.1503,-1.1491,-1.1491,-1.1482,-1.1482,-1.1482,-1.1482,0,-1.1898,-1.1868,-1.1838,-1.1797,-1.1786,-1.1772,-1.1736,-1.1721,-1.1698,-1.1673,-1.1666,-1.1631,-1.1604,-1.1575,-1.1538,-1.1524,-1.1502,-1.1494,-1.1512,-1.1509,-1.1506,-1.1507,-1.1502,-1.15,-1.149,-1.149,-1.149,0,-1.1899,-1.1884,-1.184,-1.1825,-1.1806,-1.1781,-1.1763,-1.1733,-1.1715,-1.1678,-1.1667,-1.1638,-1.1614,-1.1572,-1.1544,-1.1516,-1.1507,-1.1507,-1.1503,-1.1511,-1.1507,-1.1508,-1.1506,-1.1509,-1.1509,-1.1509,-1.1509,0,-1.1905,-1.189,-1.1865,-1.1834,-1.1813,-1.1787,-1.1761,-1.175,-1.1714,-1.1696,-1.1667,-1.1648,-1.1611,-1.1583,-1.1551,-1.1532,-1.1515,-1.1511,-1.1509,-1.1516,-1.1527,-1.1521,-1.1516,-1.1511,-1.1511,-1.1511,-1.1511,-1.1511,-1.1913,-1.1898,-1.1865,-1.1838,-1.1814,-1.179,-1.1773,-1.1749,-1.1724,-1.1691,-1.1674,-1.1646,-1.1616,-1.1572,-1.1553,-1.1531,-1.1526,-1.1523,-1.1522,-1.1521,-1.1523,-1.1531,-1.1526,-1.1526,-1.1525,-1.1525,-1.1525,0,-1.1917,-1.1894,-1.1869,-1.1833,-1.1811,-1.1796,-1.1767,-1.175,-1.1725,-1.1698,-1.1674,-1.1642,-1.1615,-1.1584,-1.1555,-1.1543,-1.1535,-1.1537,-1.1537,-1.1533,-1.1529,-1.1534,-1.1544,-1.1544,-1.1544,-1.1544,-1.1544,-1.1544,-1.1917,-1.1891,-1.1873,-1.1835,-1.1813,-1.1785,-1.1769,-1.1747,-1.1725,-1.169,-1.1667,-1.1647,-1.1618,-1.1587,-1.1562,-1.1553,-1.1544,-1.1548,-1.1538,-1.1535,-1.1533,-1.1532,-1.1536,-1.1546,-1.1546,-1.1543,-1.1543,-1.1543]},{"header":{"parameterUnit":"m.s-1","parameterCategory":1,"la1":30.2991,"la2":30.254,"lo1":-89.0895,"lo2":-89.0444,"dy":0.0017,"dx":0.0017,"nx":28,"ny":28,"refTime":"2023-08-27T03:00:00:Z","depth":0,"parameterNumber":3,"parameterNumberName":"V-component_of_WINDS"},"data":[0,0,0,0,0,0,0,0,0,0,0,0,0,0,0,0,0,0,0,0,0,0,0,0,0,0,0,0,0,0,0,0,0,0,0,0,0,0,0,0,0,0,0,0,0,0,0,0,0,0,0,0,0,0,0,0,0,0,7.0366,7.0366,0,7.0414,7.0414,7.0415,7.0375,7.0373,7.0371,7.037,7.0414,7.0416,7.0419,0,0,0,0,0,0,0,0,0,0,0,0,0,7.0235,7.0237,7.0365,7.0366,7.0367,7.0413,7.0414,7.0415,7.0375,7.0373,7.0371,7.0369,7.0413,7.0416,7.0419,0,0,0,0,0,0,0,0,0,0,0,0,0,7.0288,7.0238,7.0365,7.0353,7.0352,7.0413,7.0414,7.0415,7.0375,7.0373,7.037,7.0368,7.0412,7.0416,7.042,7.0495,0,0,7.0432,7.0434,0,0,0,0,0,0,0,0,7.0285,7.0293,7.0354,7.0354,7.0353,7.0386,7.0384,7.0441,7.0376,7.0366,7.037,7.0367,7.0406,7.041,7.0425,7.0497,7.0499,7.0433,7.0435,7.0437,7.0438,0,0,0,0,0,0,0,7.0281,7.029,7.0384,7.0355,7.0354,7.0343,7.0348,7.0395,7.0399,7.0367,7.0364,7.0371,7.0405,7.0421,7.0425,7.0499,7.0432,7.0436,7.0439,7.044,7.0636,7.0639,0,0,0,0,0,0,7.028,7.0288,7.0383,7.0386,7.0312,7.0347,7.0353,7.0378,7.0399,7.04,7.0373,7.0369,7.0415,7.0421,7.0427,7.0517,7.0437,7.0441,7.0443,7.0633,7.0637,7.064,0,0,0,0,0,0,7.0277,7.0289,7.0381,7.0336,7.0347,7.0352,7.038,7.038,7.0395,7.0403,7.0403,7.0388,7.0413,7.0421,7.0479,7.0518,7.0442,7.0446,7.063,7.0634,7.0638,7.0697,0,0,0,0,0,0,7.0273,7.0288,7.0317,7.0337,7.035,7.0433,7.0383,7.0383,7.0403,7.0398,7.0418,7.0419,7.0412,7.0473,7.0483,7.0522,7.0449,7.0627,7.0632,7.0637,7.0691,7.0703,7.0712,0,0,0,0,0,7.0269,7.033,7.0319,7.0331,7.0387,7.0436,7.0443,7.0435,7.0407,7.0436,7.0441,7.0418,7.0512,7.0479,7.049,7.0531,7.0624,7.063,7.0636,7.0687,7.07,7.0712,0,0,0,0,0,0,7.0313,7.0333,7.032,7.039,7.0412,7.0429,7.0465,7.045,7.0478,7.0472,7.0461,7.0465,7.0526,7.0534,7.0497,7.0605,7.0563,7.0572,7.0598,7.0611,7.0621,7.0617,7.0453,0,0,0,0,0,7.0331,7.0371,7.0385,7.0446,7.0457,7.046,7.0481,7.0474,7.0495,7.0503,7.0512,7.0532,7.0566,7.0589,7.062,7.0692,7.0696,7.0726,7.0736,7.0745,7.0752,7.0792,7.0805,7.066,7.066,7.066,0,0,7.0368,7.0384,7.0409,7.0455,7.0471,7.0511,7.0468,7.0511,7.0541,7.0509,7.0565,7.0572,7.0594,7.0659,7.0689,7.0668,7.0793,7.0753,7.0759,7.0762,7.0799,7.0813,7.0825,7.0664,7.0664,7.0663,0,0,7.0457,7.0473,7.0526,7.0543,7.0569,7.057,7.0583,7.0603,7.0607,7.0664,7.0641,7.0675,7.0734,7.075,7.0766,7.0863,7.0843,7.0874,7.0927,7.0966,7.0977,7.0987,7.1022,7.1035,7.0881,7.0881,7.0882,0,7.05,7.0561,7.0554,7.0601,7.0622,7.0597,7.065,7.0666,7.07,7.0714,7.0691,7.0766,7.0778,7.0848,7.0872,7.0885,7.0899,7.0871,7.0976,7.0986,7.0996,7.1029,7.1042,7.0885,7.0885,7.0884,7.0884,0,7.0612,7.0655,7.0695,7.0731,7.0756,7.0805,7.0805,7.0831,7.0822,7.0825,7.0883,7.0897,7.0932,7.0948,7.0938,7.1017,7.1003,7.0978,7.0936,7.1013,7.1044,7.1057,7.089,7.0889,7.0888,7.0887,0,0,7.0729,7.0763,7.0777,7.0794,7.0821,7.0853,7.0901,7.0937,7.096,7.0984,7.1024,7.1075,7.1053,7.1071,7.1063,7.1097,7.1174,7.1068,7.1069,7.1088,7.1261,7.128,7.1295,7.1161,7.1164,7.1165,7.126,0,7.082,7.0906,7.0902,7.0982,7.1022,7.0999,7.1041,7.1062,7.1066,7.11,7.1104,7.1141,7.1109,7.112,7.1152,7.1158,7.1209,7.1151,7.1197,7.1199,7.1193,7.1311,7.1331,7.1419,7.1272,7.1274,7.1275,0,7.0937,7.0968,7.1053,7.1075,7.1091,7.1129,7.1163,7.1195,7.1218,7.1219,7.1241,7.1228,7.1275,7.1232,7.1298,7.1259,7.1277,7.1283,7.1286,7.129,7.1242,7.1319,7.1447,7.1461,7.1294,7.1293,7.1291,0,7.1014,7.1077,7.1136,7.1151,7.1178,7.1206,7.1218,7.1238,7.1261,7.1289,7.1304,7.1336,7.1355,7.138,7.1376,7.1345,7.1443,7.1399,7.1445,7.1445,7.1466,7.1465,7.16,7.1478,7.1478,7.1477,7.1477,0,7.1116,7.1169,7.1172,7.1208,7.1266,7.1261,7.1318,7.1327,7.1346,7.1383,7.1365,7.1399,7.1392,7.1426,7.1423,7.1478,7.1486,7.1488,7.1486,7.149,7.149,7.1502,7.1496,7.1481,7.148,7.1479,7.1479,0,7.1212,7.1217,7.128,7.1302,7.1308,7.135,7.1368,7.1402,7.1406,7.1453,7.1463,7.1469,7.1509,7.1508,7.1552,7.155,7.1618,7.1609,7.1611,7.1609,7.1655,7.1651,7.1802,7.1822,7.1687,7.1688,7.1689,0,7.1277,7.1318,7.1345,7.1369,7.1384,7.1424,7.1447,7.1443,7.1468,7.1498,7.1528,7.1566,7.1597,7.1661,7.1668,7.1702,7.1694,7.1745,7.1699,7.1701,7.1695,7.1693,7.1697,7.1754,7.1755,7.1756,7.1757,0,7.1392,7.1393,7.1428,7.1465,7.1495,7.1523,7.1549,7.1569,7.1568,7.1597,7.1638,7.1662,7.1709,7.1747,7.178,7.1791,7.1774,7.1772,7.1784,7.1788,7.1788,7.1789,7.1636,7.1768,7.1767,7.1766,7.1766,7.1765,7.1475,7.1511,7.1536,7.1576,7.1596,7.1621,7.1655,7.1664,7.1699,7.1738,7.1733,7.1779,7.1801,7.1844,7.1858,7.1893,7.1875,7.1893,7.1897,7.1902,7.1908,7.1783,7.1899,7.1899,7.1898,7.1898,7.1898,0,7.1589,7.1605,7.1643,7.1681,7.1713,7.1696,7.1724,7.1752,7.1793,7.1816,7.1847,7.1895,7.1933,7.1943,7.1979,7.2005,7.1999,7.2015,7.2013,7.2016,7.1921,7.1908,7.202,7.202,7.202,7.202,7.202,7.202,7.1653,7.1713,7.1716,7.1785,7.18,7.1847,7.1864,7.1887,7.1906,7.1961,7.1993,7.2,7.2018,7.2055,7.2088,7.209,7.2104,7.2124,7.2123,7.2035,7.2022,7.2011,7.1998,7.2127,7.2127,7.2215,7.2216,7.2216]}]]